Showing default

GJZ 05, 62294

Orbit data source: Space-Track

GJZ 05, 62294 is a payload satellite owned by CASC (CN) in LEO that was launched on Thu, 12 Dec 2024 UTC via a CHANG ZHENG 2D/YZ-3 launch vehicle from the Jiuquan Satellite Launch Center, China (JSC). Payload-class satellites include a variety of spacecraft equipped with specific instruments for various scientific and technological missions. These include communications satellites like Starlink; space stations such as the ISS; scientific satellites like the Hubble; Earth observation satellites from companies like Planet Labs, Umbra, and HawkEye 360; GPS; miniature CubeSats for education and research; and military/defense satellites.

Loading next visibility...
Identifier
62294, 2024-238E
Orbit
LEO
Country
Flag of CNCN / PRC
Related business
Manufacturer
HITSAT
Mission
Operational Civil Communications
Bus & Motor
HARBFLAT, Unknown motor
Mass
~150 kg wet, ~150 kg dry
Launch date (UTC)
2024-12-12 (1 year ago)
Launch vehicle
CHANG ZHENG 2D/YZ-3
Launch site
Jiuquan Satellite Launch Center, China (JSC)
Object type
Payload
Rocket body
Debris
Shape & HBR
Box + 2 Pan, 1.5 m
Radar Cross Section
0.240 m², Large (>1 m²)

Expand to show TLE details & history
Last TLE update: 5 hours ago

TLE from 5 hours ago
0 GJZ 05
1 62294U 24238E   26036.31247551  .00000033  00000-0  15829-3 0  9991
2 62294  59.9132 310.1432 0009927 223.2590 136.7639 13.75185608 57773
Epoch: 2026-02-05T07:29Z
TLE epoch observation values (Epoch: 2026-02-05T07:29:57.884Z)
Latitude
Longitude
62.18551°
Altitude
987.824 km
Speed
7.356 km/s
True Right ascension
20h 40m 34s
True Declination
0° 00' 00"
Sunlit
Object was in daylight at epoch
Visualization orbit readout
Latitude
Unknown
Longitude
Unknown
Altitude
Unknown
Speed
Unknown
Apparent Right ascension
Unknown
Apparent Declination
Unknown
Sunlit
N/A
Visualization observer readout
Local Sidereal Time
14:58:08
Azimuth
Unknown
Elevation
Unknown
Doppler factor
Unknown
Orbital elements
Apogee altitude
987.586 km
Perigee altitude
972.976 km
Semi-major axis
7,358.418 km
Eccentricity
0.00099
Inclination
59.9132°
RAAN
310.1432°
Arg. of periapsis
223.259°
True anomaly
136.84175°
Mean anomaly
136.7639°
Eccentric anomaly
136.80283°
Mean motion
3.43848 °/min
Orbital period
104.7 mins
BSTAR
0.00015829
Loading maneuver chart data...
Computing Atmospheric mass density...
Loading historical data...
Loading historical data...
Loading historical data...
Loading historical data...
Loading historical data...
Loading historical data...
Loading historical data...
Other satellites on launch #238 in the year 2024 (2024-12-12 UTC)

Documentation

Showing up to 5 results
|